Location: Newark
(48.0000°N, 67.0000°E)
Time: 13:27:17
(UTC+00:00)

N. Korean satellite - Visible Passes

Search period start: 24 January 2020 00:00
Search period end: 03 February 2020 00:00
Orbit: 454 x 507 km, 97.2° (Epoch: 23 January)

Date Brightness Start Highest point End Pass type
(mag) Time Alt. Az. Time Alt. Az. Time Alt. Az.
24 Jan 6.6 01:26:50 10° NNE 01:30:24 82° ESE 01:34:00 10° S visible
24 Jan 10.0 13:41:13 10° WSW 13:42:37 12° W 13:44:00 10° WNW visible
25 Jan 8.0 01:01:29 10° NNE 01:04:51 39° E 01:08:16 10° S visible
25 Jan 9.3 13:14:07 10° SSW 13:16:53 23° W 13:19:41 10° NW visible
26 Jan 9.3 00:36:29 10° NE 00:39:14 21° E 00:42:00 10° SE visible
26 Jan 7.3 02:09:29 10° N 02:12:40 31° WNW 02:15:52 10° SW visible
27 Jan 10.1 00:12:29 10° ENE 00:13:30 11° E 00:14:32 10° ESE visible
27 Jan 6.5 01:43:43 10° N 01:47:15 61° WNW 01:50:50 10° SSW visible
28 Jan 7.0 01:18:11 10° NNE 01:21:46 65° E 01:25:23 10° S visible
28 Jan 9.8 13:31:50 10° SW 13:33:52 15° W 13:35:56 10° NW visible
29 Jan 8.5 00:52:55 10° NNE 00:56:12 32° E 00:59:30 10° SSE visible
29 Jan 7.9 02:26:40 10° NNW 02:29:25 21° WNW 02:32:12 10° WSW visible
29 Jan 8.9 13:05:10 10° SSW 13:08:10 28° W 13:11:14 10° NW visible
30 Jan 9.6 00:28:05 10° NE 00:30:32 17° E 00:32:59 10° SE visible
30 Jan 7.0 02:00:42 10° N 02:04:04 38° WNW 02:07:29 10° SW visible
31 Jan 6.5 01:35:01 10° N 01:38:38 78° WNW 01:42:17 10° SSW visible
01 Feb 7.5 01:09:34 10° NNE 01:13:07 51° E 01:16:41 10° S visible
01 Feb 9.7 13:22:38 10° SW 13:25:07 19° W 13:27:39 10° NW visible
02 Feb 8.9 00:44:23 10° NE 00:47:31 26° E 00:50:38 10° SSE visible
02 Feb 7.6 02:17:47 10° NNW 02:20:50 25° WNW 02:23:54 10° SW visible
